User: anonymous
Location: Vale
(35.4830°N, 81.3830°W)
Time: 13:31:43
(UTC-04:00)
Language:

Oscar 11 - Orbit

View from above orbital plane
View from above orbital plane
View from above satellite
View from above satellite

Ground track
Ground track

The orbit data is extracted from the following two-line orbital elements,

1 14781U 84021B   14244.74967289  .00000526  00000-0  73351-4 0  5861
2 14781 097.8451 303.3571 0007193 292.7223 067.3230 14.81704635639307
Epoch (UTC): 01 September 2014 17:59:31
Eccentricity: 0.0007193
inclination: 97.8451°
perigee height: 619 km
apogee height: 629 km
right ascension of ascending node: 303.3571°
argument of perigee: 292.7223°
revolutions per day: 14.81704635
mean anomaly at epoch: 67.3230°
orbit number at epoch: 63930

The dashed part of the orbit path shows where the satellite is in the earth's shadow,  

DLR